CZ-6A DEB

Satellite information

Favourite Embed

Satellite Type and Status

DEBRISIN ORBIT

Key statistics

Satellite CZ-6A DEB at a glance.

Uptime

335

Days in orbit

Revolutions

≈ 14.4

Per day

Orbit

LEO

Low Earth Orbit

Inclination

88.9

Latest

Satellite identification and parameters

Extended collection of information and parameters for CZ-6A DEB.

Object identification

Identified? True

Debris? True

Object name: CZ-6A DEB

International designator: 2024-140BC

Object number (NORAD): 60651

Object ID (CCSDS): 60651

Country: PEOPLES REPUBLIC OF CHINA (PRC)

Current information (Y/N): Y

RCS size: LARGE

Orbital parameters

Period: 99.69 minutes

Inclination: 88.8916 deg

SMA: 7121.863 km

Apoapsis: 799.647 km

Periapsis: 687.81 km

RAAN: 307.471 deg

Eccentricy: 0.0078517

Argument of periapsis: 25.0464 deg

Mean anomaly: 335.4515 deg

Mean motion: 14.44482588 rev/day

Mean motion (dot): 0.00000172 rev/day2

B* drag term: 0.000043335 1/REarth

Two-line elements (TLE)

Creation date: July 6, 2025, 10:46 p.m.

Reference frame: TEME

Reference center: EARTH

Epoch: July 6, 2025, 8:12 p.m. UTC

TLE line 0: 0 CZ-6A DEB

TLE line 1: 1 60651U 24140BC 25187.84220533 .00000172 00000-0 43335-4 0 9991

TLE line 2: 2 60651 88.8916 307.4710 0078517 25.0464 335.4515 14.44482588 47961

Live tracking on map

Real-time ground track for satellite CZ-6A DEB.

In-orbit conjunctions

A list of the most updated potential collisions computed for object CZ-6A DEB.

Target Orbit TCA Probability of collision Miss distance Type
NOAA 10 SSO 2025-03-17 01:56:33 0.0005175245 220.0 (m) PAYLOAD
NOAA 16 DEB SSO 2025-01-23 23:41:44 0.0002977109 455.0 (m) DEBRIS
WORLDVIEW 2 DEB SSO 2024-12-21 05:42:57 0.0001637769 980.0 (m) DEBRIS
COSMOS 2251 DEB LEO 2024-09-22 21:23:22 0.00010698 585.0 (m) DEBRIS

Associated space launch

18 Low Earth Orbit communication satellites with Ku, Q and V band payloads for the G60 constellation operated by Shanghai Spacecom Satellite Technology (SSST) with funding backed by the Shanghai local government. Initial constellation will consist of 1296 satellites by 2027 with long term plans to expand it to 12000 satellites.

CZ-6A DEB was lifted into orbit during the mission ‘Long March 6A | G60 Polar Group 01’, on board a Long March 6A space rocket.

The launch took place on Aug. 6, 2024, 6:42 a.m. from Launch Complex 9A.

For more information about the launch, click the button.

Launch to space Long March 6A | G60 Polar Group 01
Long March 6A | G60 Polar Group 01

Agency: N/A

Status: Launch Successful

Launch date: Aug. 6, 2024, 6:42 a.m. UTC

Rocket: Long March 6A

Launch pad: Launch Complex 9A

Location: Taiyuan Satellite Launch Center, People's Republic of China

...

Latest news about this satellite

News about space launch
Brightness of first Chinese broadband constellation satellites alarms astronomers

The first satellites of a Chinese broadband constellation are significantly brighter than those of Western systems, posing a new challenge for astronomers.

News about space launch
Chinese rocket stage breaks up into cloud of more than 700 pieces of space debris

HELSINKI — A Chinese Long March 6A rocket’s upper stage has fragmented into a cloud of over 700 pieces of space debris, adding to concerns about long-term orbital safety. China […]

News about space launch
China's Thousand Sails Megaconstellation Kicks Off with Dangerous Debris Field

China's Thousand Sails Megaconstellation Kicks Off with Dangerous Debris Field


Newsletter sign-up

Weekly statistics, charts and insights to help you stay on top of the space industry.